Flag for U.S.A. Weather past 2 weeks in Port Angeles, Washington, U.S.A.

Now
45 °F

Passing clouds.


Feels Like: 40 °F
Forecast: 45 / 50 °F
Wind: 9 mph from West

Location: William R. Fairchild International Airport

Current Time: Dec 22, 2014 at 3:49:32 AM

Latest Report: Dec 22, 2014 at 2:53 AM


Visibility: 10 mi

Pressure: 30.20 "Hg

Humidity: 80%

Dew point: 39 °F

Location of Port AngelesLocation

Historic Weather in Port Angeles — Graph

°F

Port Angeles temperature yesterday

Maximum temperature yesterday: 53 °F (at 2:53 AM)
Minimum temperature yesterday: 47 °F (at 5:53 AM)
Average temperature yesterday: 50 °F

Past Weeks' High & Low Weather Summary

 TemperatureHumidityPressure
High57 °F (Dec 9, 1:53 PM)100% (Dec 9, 3:53 AM)30.24 "Hg (Dec 9, 3:53 AM)
Low30 °F (Dec 15, 2:53 AM)59% (Dec 15, 12:53 PM)29.04 "Hg (Dec 11, 7:53 PM)
Average46 °F86%29.79 "Hg
* Reported Dec 7 2:53 AM — Dec 22 2:53 AM, Port Angeles, Weather by CustomWeather, © 2014

Note: Actual official high and low records may vary slightly from our data, if they occured in-between our weather recording intervals... More about our weather records

Advertising

Port Angeles weather history for previous 24 hours

 ConditionsComfort  
Time TempWeatherWind HumidityBarometerVisibility
2:53 AM
Dec 22
45 °FPassing clouds.9 mph80%30.20 "Hg10 mi
1:53 AM48 °FMostly cloudy.12 mph71%30.17 "Hg10 mi
12:53 AM47 °FLight rain. Partly cloudy.7 mph77%30.16 "Hg10 mi
11:53 PM
Dec 21
49 °FPassing clouds.12 mph71%30.12 "Hg10 mi
10:53 PM48 °FClear.10 mph71%30.09 "Hg10 mi
9:53 PM49 °FClear.13 mph69%30.08 "Hg10 mi
8:53 PM50 °FLight rain. Passing clouds.8 mph63%30.06 "Hg10 mi
7:53 PM50 °FPassing clouds.13 mph68%30.06 "Hg10 mi
6:53 PM49 °FClear.9 mph74%30.04 "Hg10 mi
5:53 PM50 °FPassing clouds.8 mph71%30.03 "Hg10 mi
4:53 PM49 °FClear.13 mph74%30.03 "Hg10 mi
3:53 PM50 °FSunny.9 mph74%30.01 "Hg10 mi
2:53 PM51 °FScattered clouds.13 mph74%29.99 "Hg10 mi
1:53 PM51 °FBroken clouds.7 mph77%29.98 "Hg10 mi
12:53 PM52 °FMostly cloudy.6 mph75%29.96 "Hg10 mi
11:53 AM51 °FMostly cloudy.7 mph77%29.94 "Hg10 mi
10:53 AM52 °FMostly cloudy.5 mph75%29.92 "Hg10 mi
9:53 AM51 °FBroken clouds.6 mph74%29.90 "Hg10 mi
8:53 AM49 °FSunny.7 mph84%29.87 "Hg10 mi
7:53 AM47 °FPassing clouds.8 mph90%29.83 "Hg10 mi
6:53 AM47 °FPassing clouds.8 mph90%29.80 "Hg10 mi
5:53 AM47 °FMostly cloudy.14 mph86%29.78 "Hg10 mi
4:53 AM49 °FPassing clouds.3 mph84%29.73 "Hg10 mi
3:53 AM50 °FOvercast.16 mph80%29.72 "Hg10 mi
Weather by CustomWeather, © 2014

See weather overviewHow to use our weather pages